Airport Information

KLWS - Lewiston Nez Perce Co Airport

KLWS 251056Z AUTO 10008KT 10SM CLR 04/02 A3021 RMK AO2 SLP238 T00440022


  • General Information

  • Coordinates: N 46°22'28"/ W 117°0'55"
  • Location: N/A
  • Surveyed Elevation: 1442 MSL

Operations

Flow Name Active Runways Conditions

Green background denotes normal operations.


Common Frequencies

Callsign Frequency Position Name

More at the Document Center


Charts